www.pogodaiklimat.ru

Погода и климат >> Архив погоды >> Россия >> Кемеровская область >> Тяжин


ПОГОДА в Тяжине

  • Прогноз погоды в Тяжине
  • Монитор погоды в Тяжине

АРХИВ ПОГОДЫ в Тяжине

Время (UTC), дата Ветер
(напр.,м/с)
 
Видим.   Явления Облачность Т
(С)
Тd
(С)
f
(%)
Тe
(С)
Тes
(С)
Комфортность P
(гПа)
Po
(гПа)
Тmin
(С)
Tmax
(С)
R
(мм)
R24
(мм)
S
(см)
09 9.07 З 2 20 км 6/3 600 м
[Cu hum Ci fib]
+27.1 +10.3 35 +28 +32 жарко 1005.0 980.0
12 9.07 В 1 20 км 9/0
[Ci]
+26.5 +10.4 36 +27 +29 жарко 1002.4 977.4 +27.2
15 9.07 СЗ 1 20 км 8/0
[Ac lent Ci fib]
+21.1 +14.5 66 +24 +24 комфорт 1004.2 978.7
18 9.07 В 1 20 км 3/0
[Ac lent Cc]
+16.3 +13.4 83 +17 +17 1003.2 977.3
21 9.07 штиль 0 10 км 3/0
[Cc]
+13.4 +12.0 91 +13 +13 1002.1 976.0
00 10.07 С 1 20 км 6/0
[Ci fib]
+17.2 +13.3 78 +18 +20 1002.4 976.7 +13.1
03 10.07 З 3 20 км 10/3 600 м
[Sc Ac trans Cc]
+20.4 +12.6 61 +23 +23 комфорт 1004.2 978.7
06 10.07 З 4 20 км 10/4 600 м
[Sc diur, vesp Ac trans Cc]
+20.6 +12.8 61 +23 +23 комфорт 1005.6 980.0
09 10.07 З 3
{10}
20 км 10/5 600 м
[Cb cap Ac trans Ci sp]
+19.4 +14.2 72 +21 +21 комфорт 1007.0 981.3
12 10.07 З 4 20 км 8/3 600 м
[Sc diur, vesp Ac trans Ci fib]
+21.7 +10.9 50 +24 +24 комфорт 1007.9 982.4 +22.1
15 10.07 штиль 0 20 км 7 баллов +18.1 +12.5 70 +18 +18 1011.2 985.3
18 10.07 З 1 20 км 2 балла +14.5 +11.5 82 +15 +15 1014.3 988.0
21 10.07 штиль 0 20 км 3/0
[Cc]
+11.8 +9.9 88 +11 +11 1015.9 989.3
00 11.07 СЗ 2 20 км 3/0
[Ac trans]
+15.5 +12.6 83 +15 +17 1016.4 990.2 +11.2
03 11.07 С 2 20 км 7 баллов +19.1 +11.9 63 +21 +24 комфорт 1018.0 992.0
06 11.07 СЗ 3 20 км 6/4 600 м
[Sc diur, vesp Ac trans]
+20.8 +9.7 49 +23 +28 комфорт 1019.2 993.3
09 11.07 С 3 20 км 6 баллов +21.1 +10.6 51 +23 +26 комфорт 1019.2 993.3
12 11.07 С 3 20 км 6/3 600 м
[Sc diur, vesp Ac trans]
+21.0 +10.3 50 +23 +24 комфорт 1018.1 992.3 +22.0
15 11.07 С 1 20 км ясно +16.5 +11.2 71 +17 +17 1019.6 993.3
18 11.07 штиль 0 10 км ясно +10.8 +9.1 89 +10 +10 1021.6 994.7
21 11.07 СВ 1 4000 м дымка ясно +8.7 +7.3 91 +8 +8 1021.8 994.7
00 12.07 С 1 20 км ясно +12.0 +10.2 89 +12 +14 1020.7 994.1 +8.0
03 12.07 СВ 2 20 км 3/3 600 м
[Cu med, cong]
+20.3 +10.7 54 +23 +30 комфорт 1020.7 994.7
06 12.07 В 3 20 км 6 баллов +22.6 +8.7 41 +24 +29 комфорт 1020.5 994.7
09 12.07 СВ 4 20 км 3/3 600 м
[Cu hum]
+23.6 +8.4 38 +24 +30 комфорт 1019.0 993.3
12 12.07 В 3 20 км 4/4 600 м
[Sc diur, vesp]
+23.7 +9.2 40 +25 +26 комфорт 1017.1 991.6 +24.2
15 12.07 СВ 2 20 км ясно +18.7 +10.8 60 +20 +20 1018.1 992.0
18 12.07 С 2 20 км ясно +13.7 +9.7 77 +13 +13 1019.9 993.3
21 12.07 С 1 10 км ясно +11.1 +8.8 86 +11 +11 1018.8 992.0
00 13.07 С 2 20 км 4/0
[Ci fib]
+13.7 +10.0 78 +13 +15 1017.0 990.6 +11.1
03 13.07 СВ 3 20 км 8/0
[Ci fib]
+22.0 +10.8 49 +24 +26 комфорт 1016.4 990.7
06 13.07 СВ 4 20 км 7 баллов +24.5 +9.6 39 +25 +28 комфорт 1014.8 989.3
09 13.07 СВ 4 20 км 6/0
[Ci fib]
+24.9 +9.4 37 +26 +32 жарко 1012.8 987.4
12 13.07 СВ 2 10 км ясно +22.6 +9.7 44 +24 +27 комфорт 1012.5 987.0 +25.2
18 13.07 С 1 10 км 2 балла +11.8 +9.4 85 +12 +12 1013.3 986.7
21 13.07 штиль 0 4000 м дымка 10 баллов +10.8 +8.7 87 +10 +10 1013.4 986.7
00 14.07 штиль 0 4000 м дымка 10/0
[Cs]
+12.3 +10.0 86 +12 +14 1012.2 985.8 +9.9
03 14.07 СВ 2 10 км 10 баллов +20.1 +14.2 69 +23 +23 комфорт 1012.5 986.7
06 14.07 СВ 4 10 км 10 баллов +24.7 +15.3 56 +28 +28 душно 1012.1 986.7
09 14.07 С 4 20 км 2 балла +25.5 +12.7 45 +27 +33 жарко 1012.0 986.7
12 14.07 С 3 20 км 3/3 600 м
[Cu hum]
+24.6 +10.7 42 +26 +27 жарко 1010.4 985.1 +25.7
15 14.07 СЗ 1 20 км 2 балла +19.3 +12.1 63 +22 +22 комфорт 1012.6 986.7
18 14.07 штиль 0 20 км 2 балла +15.1 +11.3 78 +15 +15 1011.5 985.3
21 14.07 З 4 н/о н/о +16.8 +6.3 50 +16 1011.4 985.3
00 15.07 С 2 20 км 5/0
[Ac cast]
+13.6 +9.6 77 +13 +14 1010.9 984.6 +12.3
03 15.07 СЗ 3 20 км 10 баллов +16.2 +8.2 59 +16 +16 1011.4 985.3
06 15.07 С 4 20 км 10 баллов +16.4 +9.3 63 +16 +16 1011.4 985.3
09 15.07 С 2 20 км 6 баллов +18.3 +10.4 60 +19 +23 1009.9 984.0
12 15.07 С 2 20 км 10/4 600 м
[Sc diur, vesp Ac trans Cs]
+20.1 +11.3 57 +22 +23 комфорт 1009.0 983.3 +20.1
15 15.07 С 2 10 км 10 баллов +17.2 +12.7 75 +18 +18 1010.0 984.0
18 15.07 С 1 10 км 10 баллов +13.8 +11.8 88 +14 +14 1009.0 982.7
21 15.07 С 1 10 км 10 баллов +13.3 +11.7 90 +13 +13 1009.0 982.7
00 16.07 СВ 1 1000 м дымка 10/10 240 м
[St]
+13.6 +12.3 92 +14 +14 1006.7 980.5 +13.3
03 16.07 Ю 1 4000 м дымка 10/10 270 м
[St]
+15.6 +12.5 82 +16 +16 1006.2 980.2

 

Местоположение метеостанции Тяжин (Кемеровская область, Россия): широта 56.12 долгота 88.52 высота над уровнем моря 223 м.

В архиве по умолчанию представлена погода в Тяжине за последнюю неделю. Архивные данные за месяц целиком и за предыдущие месяцы, начиная с января 2011 года, Вы можете получить, выбрав интересующий диапазон дат из раскрывающегося списка и нажав кнопку "Ввод!".


*Определитесь, кто Вы:
робот инопланетянин человек

Внимание! Время в таблицах - всемирное. Для получения местного времени необходимо прибавить поправку, которая равна 7 ч.

Смотрите также архив погоды в соседних городах и на ближайших метеорологических станциях:

Погода в Тисуле (Кемеровская область, Россия) (43 км)
Погода в Мариинске (Кемеровская область, Россия) (52 км)
Погода в Боготоле (Красноярский край, Россия) (67 км)
Погода в Тюхтете (Красноярский край, Россия) (67 км)
Погода в Шарыпово (Красноярский край, Россия) (78 км)
Погода в Назарово (Красноярский край, Россия) (112 км)
Погода в Центральном Руднике (Кемеровская область, Россия) (116 км)
Погода в Ужуре (Красноярский край, Россия) (122 км)
Погода в Ачинске (Красноярский край, Россия) (125 км)
Погода в Яе (Кемеровская область, Россия) (127 км)

Пояснения к столбцам:

Ветер - указаны скорость ветра в м/с - средняя за 10 мин, порывы в срок и между сроками (в фигурных скобках) и направление, откуда дует ветер: С - северный, СВ - северо-восточный, В - восточный, ЮВ - юго-восточный, Ю - южный, ЮЗ - юго-западный, З - западный, СЗ - северо-западный.
Видимость - горизонтальная дальность видимости в метрах или километрах. При видимости от 1 до 10 км при отсутствии осадков обычно наблюдается дымка, при ухудшении видимости до 1 км и менее - туман. В сухую погоду видимость может ухудшаться дымом, пылью или мглою.
Явления - указаны атмосферные явления, наблюдавшиеся в срок или в последний час перед сроком; фигурными скобками обозначены явления, наблюдавшиеся между сроками (за 1-3 часа до срока); квадратными скобками обозначены град или гололедные отложения с указанием их диаметра в мм.
Облачность - указаны через наклонную черту общая и нижняя облачность в баллах и высота нижней границы облаков в метрах; квадратными скобками обозначены формы облаков: Ci - перистые, Cs - перисто-слоистые, Cc - перисто-кучевые, Ac - высококучевые, As - высокослоистые, Sc - слоисто-кучевые, Ns - слоисто-дождевые, Cu - кучевые, Cb - кучево-дождевые. Подробнее классификацию облаков см. в Атласе облаков (PDF).
T - Температура воздуха - температура, измеренная на высоте 2 м над землей.
Td - Температура точки росы - температура, при понижении до которой содержащийся в воздухе водяной пар достигнет насыщения.
f - Относительная влажность воздуха - влажноcть воздуха, измеренная на высоте 2 м над землей.
Te - Эффективная температура - температура, которую ощущает одетый по сезону человек в тени. Характеристика душности погоды. При расчете учитывается влияние влажности воздуха и скорости ветра на теплоощущения человека.
Tes - Эффективная температура на солнце - температура, которую ощущает человек, с поправкой на солнечный нагрев. Характеристика знойности погоды. Зависит от высоты солнца над горизонтом, облачности и скорости ветра. Ночью, в пасмурную погоду, а также при ветре 12 м/с и более поправка равна нулю.
P - Атмосферное давление - приведенное к уровню моря атмосферное давление.
Po - Атмосферное давление - измеренное на уровне метеостанции атмосферное давление.
Tmin - Минимальная температура - минимум температуры воздуха на высоте 2 м над землей.
Tmax - Максимальная температура - максимум температуры воздуха на высоте 2 м над землей.
R - Количество осадков - Количество выпавших осадков за период времени, мм. При наведении курсора мыши на число - период времени, за который выпало указанное количество осадков.
R24 - Количество осадков - Количество выпавших осадков за 24 часа, мм.
S - Снежный покров - Высота снежного покрова, см. При наведении курсора мыши на число - состояние снежного покрова и степень покрытия местности в баллах.